Location: Apple Hill Campground
(44.2915°N, 71.6726°W)
Time: 05:14:47
(UTC+00:00)

BlueWalker 3 - Visible Passes

Search period start: 04 October 2024 00:00
Search period end: 14 October 2024 00:00
Orbit: 473 x 486 km, 53.2° (Epoch: 03 October)

Date Brightness Start Highest point End Pass type
(mag) Time Alt. Az. Time Alt. Az. Time Alt. Az.
04 Oct 4.5 08:35:27 11° SSE 08:36:47 13° SE 08:38:34 10° E visible
04 Oct 1.8 10:10:35 10° SW 10:14:16 88° SE 10:17:59 10° NE visible
05 Oct 4.8 08:09:02 11° ESE 08:09:02 11° ESE 08:10:00 10° ESE visible
05 Oct 1.9 09:43:16 16° SW 09:46:09 79° SE 09:49:52 10° ENE visible
06 Oct 1.9 09:16:41 37° SW 09:18:00 71° SE 09:21:42 10° ENE visible
07 Oct 2.1 08:49:58 62° SE 08:49:58 62° SE 08:53:29 10° ENE visible
08 Oct 3.6 08:23:06 31° ENE 08:23:06 31° ENE 08:25:14 10° ENE visible
08 Oct 2.9 09:57:18 16° WNW 09:59:46 32° NNW 10:03:07 10° NE visible
09 Oct 4.8 07:56:08 16° ENE 07:56:08 16° ENE 07:56:57 10° ENE visible
09 Oct 2.8 09:30:21 28° WNW 09:31:27 34° NNW 09:34:52 10° NE visible
10 Oct 2.7 09:03:17 36° NNW 09:03:17 36° NNW 09:06:34 10° NE visible
11 Oct 3.6 08:36:09 27° NNE 08:36:09 27° NNE 08:38:14 10° NE visible
11 Oct 3.7 10:10:36 10° NW 10:13:27 20° N 10:16:17 10° NE visible
12 Oct 4.6 08:08:57 16° NE 08:08:57 16° NE 08:09:52 10° NE visible
12 Oct 3.7 09:43:09 15° NW 09:45:00 21° N 09:47:52 10° NE visible
13 Oct 3.6 09:15:53 20° NNW 09:16:31 21° N 09:19:24 10° NE visible
